Regional Weather Roundup
Issued by NWS San Diego, CA

Home | Current Version | Previous Version | Text Only | Print | Product List | Glossary On
Versions: 1 2 3 4 5 6 7 8 9 10 11 12 13 14 15 16 17 18 19 20 21 22 23 24 25 26 27 28
000
ASUS46 KSGX 012111
RWRSGX

SAN DIEGO HOURLY WEATHER ROUNDUP
NATIONAL WEATHER SERVICE SAN DIEGO CA
200 PM PDT SAT OCT 01 2016

NOTE: "FAIR" INDICATES FEW OR NO CLOUDS BELOW 12,000 FEET WITH NO
SIGNIFICANT WEATHER AND/OR OBSTRUCTIONS TO VISIBILITY.

CAZ042-043-060-061-PZZ750-775-012200-

GREATER SAN DIEGO AREA

CITY           SKY/WX    TMP DP  RH WIND       PRES   REMARKS
LINDBERGH FLD  MOSUNNY   81  60  48 W7        29.96F
NATIONAL CITY    N/A     79  66  64 W6        29.96F
IMPERIAL BEACH SUNNY     77  63  61 W10       29.96F
BROWN FIELD    SUNNY     82  60  47 W7        29.95F
MIRAMAR MCAS   MOSUNNY   87  47  24 W10       29.95F
MONTGOMERY FLD SUNNY     82  55  39 SW10      29.95F

$$

NORTH SAN DIEGO COUNTY

CITY           SKY/WX    TMP DP  RH WIND       PRES   REMARKS
CAMP PENDLETON SUNNY     82  60  47 SW10      29.93F
OCEANSIDE AP   SUNNY     78  62  57 W10       29.93F
OCEANSIDE HBR    N/A     73  67  82 SW3       29.97F
VISTA            N/A     82  57  41 SW2       29.91F
CARLSBAD       SUNNY     77  59  53 W8        29.94F
DEL MAR          N/A     76  69  78 SW1       29.97F
LA JOLLA SCRIP   N/A     71  68  89 S3        29.95F
FALLBROOK        N/A     86  52  31 SW7       29.92F
ESCONDIDO        N/A     87  55  33 W10       29.94F
SAN MARCOS       N/A     82  52  34 NW6       29.97F
POWAY            N/A     90  56  31 SW5       29.93F

$$

EAST SAN DIEGO COUNTY

CITY           SKY/WX    TMP DP  RH WIND       PRES   REMARKS
RAMONA         SUNNY     86  50  28 W12       29.97F
SANTEE LAKES     N/A     89  60  37 SW8       29.91F
LA MESA          N/A     85  55  35 SW3       29.87F
JAMUL            N/A     85  62  45 CALM      29.93F
DESCANSO N       N/A     77  52  41 W3        29.87F
MT. LAGUNA OBS   N/A     67  42  40 NW3       29.75F
CAMPO            N/A     82  47  29 SW14G25   29.98F

$$

ORANGE COUNTY AND THE LOS ANGELES BASIN

CITY           SKY/WX    TMP DP  RH WIND       PRES   REMARKS
JOHN WAYNE AP  MOSUNNY   77  62  59 S14       29.94F
LAGUNA BEACH     N/A     77  68  74 S5        29.90F
LAKE FOREST FR   N/A     89  46  21 W5        29.81F
HUNTINGTON BCH   N/A     76  69  77 SW3       29.96F
LOS ALAMITOS   SUNNY     79  63  58 S12       29.94F
FULLERTON      SUNNY     84  58  40 SW8       29.92F
LONG BEACH     SUNNY    N/A N/A N/A S9        29.94F
L.A. AP        MOSUNNY   76  62  62 W9        29.95F
L.A. DOWNTOWN  SUNNY     81  63  54 VRB5      29.93F

$$

THE INLAND EMPIRE

CITY           SKY/WX    TMP DP  RH WIND       PRES   REMARKS
CORONA         SUNNY     89  53  29 W12G20    29.92F
CHINO          MOSUNNY   92  45  19 W12G20    29.94F
ONTARIO        MOSUNNY   88  43  20 SW14G20   29.94F
RIVERSIDE AP   SUNNY     90  46  21 VRB7      29.93F
MORENO VALLEY    N/A     89  53  29 W6        28.07F
MARCH ARB      SUNNY     88  49  25 VRB6      29.95F
HORSETHIEF CYN   N/A     88  44  21 CALM      29.93F
PERRIS           N/A     88  52  29 NW3       29.95F
HEMET EAST       N/A     84  47  27 NW3       29.96F
FRENCH VALLEY  FAIR      86  50  28 SW12      29.96F
TEMECULA         N/A     87  53  30 SW8       29.98F

$$

SAN BERNARDINO AND RIVERSIDE COUNTY MOUNTAINS

CITY           SKY/WX    TMP DP  RH WIND       PRES   REMARKS
BIG BEAR AP    SUNNY     64  37  36 W9G16     30.22F
ANGELUS OAKS     N/A     71  46  41 CALM      29.86F
PINE COVE        N/A     65  45  48 CALM      29.93F

$$

SOUTHERN DESERT INCLUDING THE COACHELLA VALLEY

CITY           SKY/WX    TMP DP  RH WIND       PRES   REMARKS
PALM SPRINGS   MOSUNNY   98  47  17 W10       29.86F
PALM DESERT      N/A    100  52  20 CALM      27.82S HX  97
THERMAL        SUNNY     98  50  19 S10       29.80F HX  95
BLYTHE         SUNNY     97  51  21 S14       29.84F
IMPERIAL AP    SUNNY     98  53  22 SW8       29.82F HX  96
EL CENTRO NAS  MOSUNNY   97  49  19 VRB7      29.84F
YUMA AZ        SUNNY     97  57  26 SW6       29.84  HX  96
MEXICALI       SUNNY     95  46  18 E6        29.84

$$

UPPER DESERT

CITY           SKY/WX    TMP DP  RH WIND       PRES   REMARKS
VICTORVILLE AP MOSUNNY   86  37  17 SE13G20   29.99F
HESPERIA         N/A     83  45  26 W13       29.99F
PALMDALE       SUNNY     85  37  18 SW18G26   29.99F
LANCASTER      SUNNY     85  34  16 SW18      29.98F
EDWARDS AFB    MOSUNNY   86  32  14 W24       29.94F
DAGGETT        SUNNY     91  41  17 W18G24    29.92F
29 PALMS N     SUNNY     89  39  17 SE6       29.99F
NEEDLES          N/A    N/A N/A N/A MISG      29.86F

$$

REGIONAL REPORTS

CITY           SKY/WX    TMP DP  RH WIND       PRES   REMARKS
SANTA BARBARA  SUNNY     72  60  66 VRB7      29.96F
SANDBERG       SUNNY     80  29  15 SE20G29   30.09F
LAS VEGAS NV   MOSUNNY   90  39  16 S8G17     29.92F
PHOENIX AZ     MOSUNNY   93  50  23 S6        29.90F
TIJUANA        SUNNY     79  55  44 W8        29.97F
ENSENADA NW      N/A     71  32  23 W12       29.93F

$$

OFFSHORE ISLANDS

CITY           SKY/WX    TMP DP  RH WIND       PRES   REMARKS
CATALINA ARPT  SUNNY     75  59  57 W9        30.01F
SAN NICOLAS IS SUNNY     74  56  53 W21       29.97F

$$

MARINE AND OFFSHORE BUOY REPORTS

STATION/POSITION SKY/WX   TEMP    WIND        PRES    SWELL
                          AIR SEA DIR/SP/G            HT/PER/DIR
                          (F)     (DEG/KT/KT) (MB)    (FT/S/D)
TANNER BANKS               64 66  310/ 17/ 21 1015.4F   7/330/ 9
S CLEMENTE BASIN           67 69  290/ 10/ 10 1014.6F   7/190/16
SO. S. ROSA ISLA           62 62  310/ 17/ 21 1015.3F   5/170/16
W. S. BARBARA CH           61 59  310/ 19/ 23 1015.1F   5/310/ 8
M. S. BARBARA CH                  230/  6/  8 1015.5F
S. MONICA BASIN            69 71   CALM  /  2 1014.8F
S PEDRO CHANNEL               71                N/A     2/180/15
OCEANSIDE OFFSHR              73                N/A     3/190/17
TORREY PINES OTR              71                N/A     3/200/17
POINT LOMA SOUTH              72                N/A     3/170/14

$$





USA.gov is the U.S. government's official web portal to all federal, state and local government web resources and services.